TimeCDT,TemperatureF,Dew PointF,Humidity,Sea Level PressureIn,VisibilityMPH,Wind Direction,Wind SpeedMPH,Gust SpeedMPH,PrecipitationIn,Events,Conditions,WindDirDegrees,DateUTC
12:48 AM,77.0,73.4,89,30.01,10.0,South,11.5,-,N/A,,Mostly Cloudy,190,2013-05-19 05:48:00
12:58 AM,76.8,72.9,88,30.02,10.0,South,12.7,-,N/A,,Mostly Cloudy,190,2013-05-19 05:58:00
1:58 AM,76.8,72.7,87,30.01,10.0,South,10.4,-,N/A,,Mostly Cloudy,190,2013-05-19 06:58:00
2:13 AM,77.0,71.6,83,29.99,10.0,SSW,12.7,-,N/A,,Mostly Cloudy,200,2013-05-19 07:13:00
2:18 AM,77.0,71.6,83,29.99,10.0,SSW,12.7,-,N/A,,Scattered Clouds,200,2013-05-19 07:18:00
2:28 AM,77.0,71.6,83,29.99,10.0,SSW,11.5,-,N/A,,Mostly Cloudy,200,2013-05-19 07:28:00
2:53 AM,77.0,71.6,83,29.99,10.0,SSW,12.7,-,N/A,,Mostly Cloudy,200,2013-05-19 07:53:00
2:58 AM,76.5,71.8,85,30.00,10.0,SSW,11.5,-,N/A,,Mostly Cloudy,200,2013-05-19 07:58:00
3:08 AM,77.0,71.6,83,30.00,10.0,South,12.7,-,N/A,,Mostly Cloudy,190,2013-05-19 08:08:00
3:13 AM,77.0,71.6,83,30.00,10.0,SSW,12.7,-,N/A,,Mostly Cloudy,200,2013-05-19 08:13:00
3:18 AM,77.0,71.6,83,30.00,10.0,SSW,11.5,-,N/A,,Mostly Cloudy,200,2013-05-19 08:18:00
3:23 AM,77.0,71.6,83,30.00,10.0,SSW,11.5,-,N/A,,Scattered Clouds,200,2013-05-19 08:23:00
3:58 AM,76.3,71.6,85,30.02,10.0,South,10.4,-,N/A,,Partly Cloudy,190,2013-05-19 08:58:00
4:58 AM,76.3,72.5,88,30.03,10.0,South,8.1,-,N/A,,Scattered Clouds,170,2013-05-19 09:58:00
5:03 AM,77.0,73.4,89,30.02,10.0,South,9.2,-,N/A,,Mostly Cloudy,180,2013-05-19 10:03:00
5:28 AM,77.0,73.4,89,30.02,10.0,South,8.1,-,N/A,,Mostly Cloudy,170,2013-05-19 10:28:00
5:58 AM,77.0,73.4,89,30.04,10.0,South,5.8,-,N/A,,Overcast,170,2013-05-19 10:58:00
6:18 AM,77.0,73.4,89,30.03,10.0,South,9.2,-,N/A,,Overcast,170,2013-05-19 11:18:00
6:28 AM,77.0,73.4,89,30.03,10.0,South,6.9,-,N/A,,Mostly Cloudy,170,2013-05-19 11:28:00
6:33 AM,77.0,73.4,89,30.03,10.0,South,10.4,-,N/A,,Mostly Cloudy,170,2013-05-19 11:33:00
6:58 AM,77.0,72.9,87,30.04,10.0,South,8.1,-,N/A,,Mostly Cloudy,170,2013-05-19 11:58:00
7:08 AM,77.0,73.4,89,30.03,10.0,South,10.4,-,N/A,,Mostly Cloudy,170,2013-05-19 12:08:00
7:28 AM,77.0,73.4,89,30.03,10.0,SSE,8.1,-,N/A,,Overcast,160,2013-05-19 12:28:00
7:58 AM,77.4,73.6,88,30.05,10.0,South,10.4,-,N/A,,Mostly Cloudy,170,2013-05-19 12:58:00
8:08 AM,77.0,73.4,89,30.04,10.0,South,8.1,-,N/A,,Scattered Clouds,170,2013-05-19 13:08:00
8:13 AM,77.0,73.4,89,30.04,10.0,South,9.2,-,N/A,,Mostly Cloudy,170,2013-05-19 13:13:00
8:28 AM,78.8,73.4,83,30.04,10.0,South,10.4,-,N/A,,Mostly Cloudy,170,2013-05-19 13:28:00
8:43 AM,78.8,73.4,83,30.04,10.0,South,8.1,-,N/A,,Overcast,170,2013-05-19 13:43:00
8:58 AM,79.0,74.1,85,30.05,10.0,South,12.7,-,N/A,,Overcast,170,2013-05-19 13:58:00
9:13 AM,78.8,73.4,83,30.04,10.0,South,9.2,-,N/A,,Overcast,170,2013-05-19 14:13:00
9:58 AM,79.3,73.2,81,30.05,10.0,SSW,10.4,-,N/A,,Mostly Cloudy,200,2013-05-19 14:58:00
10:13 AM,78.8,73.4,83,30.04,10.0,South,6.9,-,N/A,,Overcast,190,2013-05-19 15:13:00
10:23 AM,78.8,73.4,83,30.04,10.0,South,9.2,-,N/A,,Overcast,170,2013-05-19 15:23:00
10:38 AM,80.6,73.4,79,30.04,10.0,South,10.4,-,N/A,,Overcast,180,2013-05-19 15:38:00
10:58 AM,79.3,74.1,84,30.05,10.0,South,9.2,-,N/A,,Overcast,170,2013-05-19 15:58:00
11:03 AM,78.8,73.4,83,30.04,10.0,South,9.2,-,N/A,,Overcast,190,2013-05-19 16:03:00
11:08 AM,78.8,73.4,83,30.05,10.0,South,9.2,-,N/A,,Mostly Cloudy,180,2013-05-19 16:08:00
11:13 AM,80.6,73.4,79,30.05,10.0,South,9.2,-,N/A,,Mostly Cloudy,190,2013-05-19 16:13:00
11:33 AM,80.6,73.4,79,30.05,10.0,South,11.5,-,N/A,,Mostly Cloudy,190,2013-05-19 16:33:00
11:43 AM,80.6,73.4,79,30.05,10.0,South,9.2,-,N/A,,Mostly Cloudy,190,2013-05-19 16:43:00
11:48 AM,80.6,73.4,79,30.05,10.0,South,10.4,-,N/A,,Mostly Cloudy,180,2013-05-19 16:48:00
11:58 AM,80.1,73.0,79,30.06,10.0,South,10.4,-,N/A,,Mostly Cloudy,190,2013-05-19 16:58:00
12:08 PM,80.6,73.4,79,30.05,10.0,South,9.2,-,N/A,,Mostly Cloudy,190,2013-05-19 17:08:00
12:18 PM,80.6,73.4,79,30.04,10.0,South,10.4,-,N/A,,Mostly Cloudy,190,2013-05-19 17:18:00
12:23 PM,82.4,73.4,74,30.04,10.0,South,11.5,-,N/A,,Mostly Cloudy,190,2013-05-19 17:23:00
12:58 PM,83.3,73.9,73,30.04,10.0,SSW,11.5,-,N/A,,Mostly Cloudy,200,2013-05-19 17:58:00
1:58 PM,81.5,73.6,77,30.04,10.0,South,10.4,-,N/A,,Scattered Clouds,180,2013-05-19 18:58:00
2:58 PM,80.6,75.2,84,30.02,10.0,South,6.9,-,N/A,,Mostly Cloudy,170,2013-05-19 19:58:00
3:58 PM,80.6,73.4,79,30.01,10.0,South,6.9,-,N/A,,Scattered Clouds,170,2013-05-19 20:58:00
4:03 PM,80.6,73.4,79,30.00,10.0,SE,6.9,-,N/A,,Mostly Cloudy,140,2013-05-19 21:03:00
4:13 PM,78.8,73.4,83,30.00,10.0,SSE,8.1,-,N/A,,Mostly Cloudy,160,2013-05-19 21:13:00
4:18 PM,78.8,73.4,83,30.00,10.0,SSE,8.1,-,N/A,,Mostly Cloudy,160,2013-05-19 21:18:00
4:28 PM,80.6,75.2,84,30.00,10.0,SSE,10.4,-,N/A,,Mostly Cloudy,160,2013-05-19 21:28:00
4:43 PM,80.6,75.2,84,29.99,10.0,SSE,9.2,-,N/A,,Mostly Cloudy,160,2013-05-19 21:43:00
4:48 PM,80.6,75.2,84,29.99,10.0,SSE,6.9,-,N/A,,Mostly Cloudy,160,2013-05-19 21:48:00
4:58 PM,79.9,74.5,83,30.00,10.0,SSE,8.1,-,N/A,,Mostly Cloudy,150,2013-05-19 21:58:00
5:03 PM,78.8,75.2,89,29.99,10.0,South,8.1,-,N/A,,Mostly Cloudy,170,2013-05-19 22:03:00
5:08 PM,78.8,75.2,89,29.99,10.0,SE,8.1,-,N/A,,Mostly Cloudy,140,2013-05-19 22:08:00
5:13 PM,78.8,73.4,83,29.99,10.0,SSE,9.2,-,N/A,,Mostly Cloudy,150,2013-05-19 22:13:00
5:53 PM,78.8,75.2,89,29.99,10.0,SSE,9.2,-,N/A,,Overcast,150,2013-05-19 22:53:00
5:58 PM,78.8,75.2,89,30.00,10.0,SSE,8.1,-,N/A,,Mostly Cloudy,160,2013-05-19 22:58:00
6:08 PM,78.8,73.4,83,29.99,10.0,South,8.1,-,N/A,,Mostly Cloudy,170,2013-05-19 23:08:00
6:13 PM,78.8,75.2,89,29.99,10.0,SSE,8.1,-,N/A,,Mostly Cloudy,160,2013-05-19 23:13:00
6:23 PM,78.8,73.4,83,29.99,10.0,SSE,8.1,-,N/A,,Mostly Cloudy,150,2013-05-19 23:23:00
6:33 PM,78.8,75.2,89,29.99,10.0,SSE,6.9,-,N/A,,Mostly Cloudy,150,2013-05-19 23:33:00
6:48 PM,78.8,73.4,83,29.99,10.0,SSE,8.1,-,N/A,,Overcast,160,2013-05-19 23:48:00
6:58 PM,78.6,74.1,86,30.00,10.0,South,10.4,-,N/A,,Mostly Cloudy,170,2013-05-19 23:58:00
7:08 PM,78.8,73.4,83,29.99,10.0,SSE,6.9,-,N/A,,Overcast,160,2013-05-20 00:08:00
7:38 PM,77.0,73.4,89,30.00,10.0,SSE,9.2,-,N/A,,Mostly Cloudy,150,2013-05-20 00:38:00
7:43 PM,77.0,73.4,89,30.00,10.0,SSE,8.1,-,N/A,,Mostly Cloudy,160,2013-05-20 00:43:00
7:53 PM,77.0,73.4,89,30.00,10.0,SSE,6.9,-,N/A,,Mostly Cloudy,150,2013-05-20 00:53:00
7:58 PM,77.7,73.9,88,30.01,10.0,SSE,6.9,-,N/A,,Mostly Cloudy,160,2013-05-20 00:58:00
8:03 PM,77.0,73.4,89,30.00,10.0,SSE,6.9,-,N/A,,Mostly Cloudy,150,2013-05-20 01:03:00
8:08 PM,77.0,73.4,89,30.00,10.0,SSE,9.2,-,N/A,,Mostly Cloudy,150,2013-05-20 01:08:00
8:53 PM,77.0,73.4,89,30.02,10.0,SSE,9.2,-,N/A,,Mostly Cloudy,150,2013-05-20 01:53:00
8:58 PM,77.0,73.4,89,30.03,10.0,SSE,9.2,-,N/A,,Mostly Cloudy,150,2013-05-20 01:58:00
9:13 PM,77.0,73.4,89,30.02,10.0,SSE,9.2,-,N/A,,Scattered Clouds,160,2013-05-20 02:13:00
9:28 PM,77.0,73.4,89,30.02,10.0,SSE,9.2,-,N/A,,Mostly Cloudy,150,2013-05-20 02:28:00
9:33 PM,77.0,73.4,89,30.03,10.0,SSE,6.9,-,N/A,,Scattered Clouds,150,2013-05-20 02:33:00
9:43 PM,77.0,73.4,89,30.03,10.0,SSE,6.9,-,N/A,,Mostly Cloudy,150,2013-05-20 02:43:00
9:58 PM,77.0,72.9,87,30.04,10.0,SSE,8.1,-,N/A,,Mostly Cloudy,160,2013-05-20 02:58:00
10:08 PM,77.0,73.4,89,30.03,10.0,SSE,8.1,-,N/A,,Mostly Cloudy,150,2013-05-20 03:08:00
10:18 PM,77.0,73.4,89,30.03,10.0,SE,6.9,-,N/A,,Mostly Cloudy,140,2013-05-20 03:18:00
10:28 PM,77.0,73.4,89,30.03,10.0,SSE,8.1,-,N/A,,Mostly Cloudy,150,2013-05-20 03:28:00
10:33 PM,77.0,73.4,89,30.03,10.0,SSE,6.9,-,N/A,,Mostly Cloudy,150,2013-05-20 03:33:00
10:38 PM,77.0,71.6,83,30.03,10.0,SSE,6.9,-,N/A,,Scattered Clouds,150,2013-05-20 03:38:00
10:58 PM,76.6,72.5,87,30.03,10.0,SSE,8.1,-,N/A,,Scattered Clouds,150,2013-05-20 03:58:00
11:08 PM,77.0,73.4,89,30.01,10.0,SSE,8.1,-,N/A,,Mostly Cloudy,160,2013-05-20 04:08:00
11:18 PM,77.0,73.4,89,30.01,10.0,SSE,8.1,-,N/A,,Scattered Clouds,160,2013-05-20 04:18:00
11:53 PM,77.0,73.4,89,30.02,10.0,SSE,6.9,-,N/A,,Mostly Cloudy,150,2013-05-20 04:53:00
11:58 PM,76.5,72.7,88,30.03,10.0,SSE,8.1,-,N/A,,Mostly Cloudy,160,2013-05-20 04:58:00